Weather History for Ankara, Turkey

Change the Weather History Date:

Monday, November 21, 2011

  Actual Average Record
Temperature  
Mean Temperature 31 °F -  
Max Temperature 39 °F 44 °F 64 °F (1996)
Min Temperature 23 °F 25 °F 21 °F (2005)
Degree Days  
Heating Degree Days 34    
Moisture  
Dew Point 27 °F    
Average Humidity 85    
Maximum Humidity 100    
Minimum Humidity 51    
Precipitation  
Precipitation 0.00 in - - ()
Sea Level Pressure  
Sea Level Pressure 30.27 in    
Wind  
Wind Speed 2 mph ()    
Max Wind Speed 6 mph    
Max Gust Speed -    
Visibility 4.4 miles    
Events      
Averages and records for this station are not official NWS values.
T = Trace of Precipitation, MM = Missing Value Source: Averaged Metar Reports

Daily Weather History Graph

Daily Weather History Graph

Search for Another Location

Airport:

Trip Planner

Search our weather history database for the weather conditions in past years. The results will help you decide how hot, cold, wet, or windy it might be!

Date:

Astronomy

Nov. 21, 2011 Rise Set
Actual Time 6:39 AM EET 4:27 PM EET
Civil Twilight 6:10 AM EET 4:56 PM EET
Nautical Twilight 5:37 AM EET 5:30 PM EET
Astronomical Twilight 5:04 AM EET 6:02 PM EET
Moon 1:53 AM EET (11/21) 1:38 PM EET (11/21)
Length of Visible Light 10h 46m
Length of Day
9h 47m
Waning Crescent, 20% of the Moon is Illuminated
Nov 21
Waning Crescent
Nov 25
New
Dec 2
First Quarter
Dec 10
Full
Dec 18
Last Quarter

Hourly Weather History & Observations

Time (EET) Temp. Windchill Dew Point Humidity Pressure Visibility Wind Dir Wind Speed Gust Speed Precip Events Conditions
12:20 AM 26.6 °F - 24.8 °F 93% 30.24 in 3.7 mi NNE 2.3 mph - N/A   Scattered Clouds
12:50 AM 26.6 °F - 26.6 °F 100% 30.24 in 2.5 mi Variable 2.3 mph - N/A   Mostly Cloudy
1:20 AM 26.6 °F - 26.6 °F 100% 30.24 in 2.5 mi Variable 2.3 mph - N/A   Mostly Cloudy
1:50 AM 26.6 °F - 26.6 °F 100% 30.24 in 2.5 mi Variable 1.2 mph - N/A   Mostly Cloudy
2:00 AM 27 °F - 26 °F 97% 30.37 in 2 mi SSW 1.2 mph - -   Mist
2:20 AM 28.4 °F - 26.6 °F 93% 30.24 in 2.5 mi Variable 1.2 mph - N/A   Mostly Cloudy
2:50 AM 28.4 °F - 26.6 °F 93% 30.24 in 2.5 mi Variable 1.2 mph - N/A   Mostly Cloudy
3:20 AM 28.4 °F - 26.6 °F 93% 30.24 in 2.5 mi Variable 1.2 mph - N/A   Mostly Cloudy
3:50 AM 28.4 °F - 26.6 °F 93% 30.24 in 2.5 mi South 1.2 mph - N/A   Mostly Cloudy
4:20 AM 30.2 °F - 26.6 °F 86% 30.24 in 2.5 mi Variable 1.2 mph - N/A   Mostly Cloudy
4:50 AM 30.2 °F - 26.6 °F 86% 30.24 in - Variable 1.2 mph - N/A   Mostly Cloudy
5:20 AM 28.4 °F - 28.4 °F 100% 30.24 in - Variable 2.3 mph - N/A   Mostly Cloudy
5:50 AM 30.2 °F - 28.4 °F 93% 30.24 in - Variable 1.2 mph - N/A   Mostly Cloudy
6:20 AM 30.2 °F - 28.4 °F 93% 30.24 in 2.8 mi Variable 1.2 mph - N/A   Mostly Cloudy
6:50 AM 30.2 °F - 28.4 °F 93% 30.27 in 2.2 mi NNE 1.2 mph - N/A   Mostly Cloudy
7:20 AM 30.2 °F - 28.4 °F 93% 30.27 in 2.2 mi NE 1.2 mph - N/A   Mostly Cloudy
7:50 AM 30.2 °F - 28.4 °F 93% 30.27 in 2.5 mi Variable 1.2 mph - N/A   Mostly Cloudy
8:00 AM 31 °F - 29 °F 89% 30.42 in 2 mi NNE 1.2 mph - -   Mist
8:20 AM 32.0 °F - 28.4 °F 87% 30.27 in 2.8 mi Variable 1.2 mph - N/A   Mostly Cloudy
8:50 AM 33.8 °F 30.8 °F 26.6 °F 75% 30.27 in 6.2 mi Variable 3.5 mph - N/A   Mostly Cloudy
9:20 AM 33.8 °F 29.6 °F 26.6 °F 75% 30.27 in 6.2 mi SSE 4.6 mph - N/A   Mostly Cloudy
9:50 AM 33.8 °F - 28.4 °F 81% 30.30 in 6.2 mi Variable 2.3 mph - N/A   Mostly Cloudy
10:20 AM 33.8 °F - 26.6 °F 75% 30.30 in 6.2 mi Variable 2.3 mph - N/A   Mostly Cloudy
10:50 AM 33.8 °F - 26.6 °F 75% 30.30 in 6.2 mi Variable 2.3 mph - N/A   Mostly Cloudy
11:20 AM 33.8 °F - 26.6 °F 75% 30.27 in 6.2 mi Variable 2.3 mph - N/A   Mostly Cloudy
11:50 AM 35.6 °F 32.8 °F 28.4 °F 75% 30.27 in 6.2 mi NW 3.5 mph - N/A   Mostly Cloudy
12:20 PM 35.6 °F 31.7 °F 28.4 °F 75% 30.27 in 6.2 mi NW 4.6 mph - N/A   Mostly Cloudy
12:50 PM 37.4 °F 33.8 °F 26.6 °F 65% 30.27 in 6.2 mi Variable 4.6 mph - N/A   Mostly Cloudy
1:20 PM 37.4 °F 32.8 °F 28.4 °F 70% 30.24 in 6.2 mi NNW 5.8 mph - N/A   Scattered Clouds
1:50 PM 37.4 °F 33.8 °F 28.4 °F 70% 30.24 in 6.2 mi West 4.6 mph - N/A   Scattered Clouds
2:00 PM 38 °F - 26 °F 51% 30.38 in 6 mi West 4.6 mph - -   Scattered Clouds
2:20 PM 39.2 °F 37.0 °F 26.6 °F 61% 30.24 in 6.2 mi West 3.5 mph - N/A   Scattered Clouds
2:50 PM 39.2 °F 37.0 °F 28.4 °F 65% 30.24 in 6.2 mi WNW 3.5 mph - N/A   Scattered Clouds
3:20 PM 39.2 °F 37.0 °F 28.4 °F 65% 30.24 in 6.2 mi North 3.5 mph - N/A   Scattered Clouds
3:50 PM 37.4 °F 34.9 °F 28.4 °F 70% 30.24 in 6.2 mi NE 3.5 mph - N/A   Scattered Clouds
4:20 PM 35.6 °F 31.7 °F 28.4 °F 75% 30.24 in 6.2 mi NNE 4.6 mph - N/A   Scattered Clouds
4:50 PM 35.6 °F 31.7 °F 28.4 °F 75% 30.24 in 6.2 mi NE 4.6 mph - N/A   Partly Cloudy
5:20 PM 35.6 °F 31.7 °F 26.6 °F 70% 30.24 in 6.2 mi ENE 4.6 mph - N/A   Partly Cloudy
5:50 PM 30.2 °F 26.7 °F 26.6 °F 86% 30.27 in 6.2 mi NNW 3.5 mph - N/A   Partly Cloudy
6:20 PM 30.2 °F - 26.6 °F 86% 30.27 in 6.2 mi Variable 1.2 mph - N/A   Partly Cloudy
6:50 PM 30.2 °F - 26.6 °F 86% 30.27 in 6.2 mi Variable 2.3 mph - N/A   Partly Cloudy
7:20 PM 30.2 °F 26.7 °F 26.6 °F 86% 30.27 in 3.7 mi NNE 3.5 mph - N/A   Partly Cloudy
7:50 PM 28.4 °F - 24.8 °F 86% 30.27 in 3.7 mi Variable 1.2 mph - N/A   Partly Cloudy
8:00 PM 28 °F - 25 °F 85% 30.43 in 4 mi 1.2 mph - -   Mist
8:20 PM 26.6 °F - 24.8 °F 93% 30.27 in 3.7 mi Variable 1.2 mph - N/A   Partly Cloudy
8:50 PM 26.6 °F - 24.8 °F 93% 30.27 in 3.7 mi Variable 1.2 mph - N/A   Partly Cloudy
9:20 PM 24.8 °F - 24.8 °F 100% 30.27 in 3.7 mi Variable 1.2 mph - N/A   Partly Cloudy
9:50 PM 24.8 °F - 23.0 °F 93% 30.27 in 3.7 mi Variable 1.2 mph - N/A   Partly Cloudy
10:20 PM 24.8 °F - 24.8 °F 100% 30.27 in 3.7 mi Variable 1.2 mph - N/A   Partly Cloudy
10:50 PM 24.8 °F 20.5 °F 23.0 °F 93% 30.27 in 3.7 mi North 3.5 mph - N/A   Partly Cloudy
11:20 PM 23.0 °F - 23.0 °F 100% 30.27 in 3.7 mi Variable 1.2 mph - N/A   Partly Cloudy
11:50 PM 23.0 °F - 21.2 °F 93% 30.27 in 3.7 mi Variable 1.2 mph - N/A   Partly Cloudy